Weather History for KSYR - January, 2014

Change the Weather History Date:

Saturday, January 18, 2014

  Actual Average Record
Temperature  
Mean Temperature 25 °F 23 °F  
Max Temperature 30 °F 31 °F 61 °F (1973)
Min Temperature 20 °F 15 °F -15 °F (1945)
Degree Days  
Heating Degree Days 40 42  
Month to date heating degree days 722 743  
Since 1 July heating degree days 3197 3196  
Cooling Degree Days 0 0  
Month to date cooling degree days 0 0  
Year to date cooling degree days 0 0  
Moisture  
Dew Point 22 °F    
Average Humidity 86    
Maximum Humidity 100    
Minimum Humidity 71    
Precipitation  
Precipitation 0.28 in 0.08 in 0.76 in (1920)
Month to date precipitation 1.83 1.53  
Year to date precipitation 1.83 1.53  
Snow  
Snow 4.80 in 1.10 in 19.80 in (1992)
Month to date snowfall 14.9 19.5  
Since 1 July snowfall 58.2 62.1  
Snow Depth 0.00 in    
Sea Level Pressure  
Sea Level Pressure 29.82 in    
Wind  
Wind Speed 11 mph (WSW)    
Max Wind Speed 21 mph    
Max Gust Speed 25 mph    
Visibility 4 miles    
Events Fog , Snow    
T = Trace of Precipitation, MM = Missing Value Source: NWS Daily Summary

Daily Weather History Graph

Daily Weather History Graph

Search for Another Location

Airport or City:

Trip Planner

Search our weather history database for the weather conditions in past years. The results will help you decide how hot, cold, wet, or windy it might be!

Date:

Astronomy

Jan. 18, 2014 Rise Set
Actual Time 7:31 AM EST 4:58 PM EST
Civil Twilight 7:00 AM EST 5:29 PM EST
Nautical Twilight 6:25 AM EST 6:04 PM EST
Astronomical Twilight 5:51 AM EST 6:38 PM EST
Moon 7:43 PM EST (1/18) 8:25 AM EST (1/18)
Length of Visible Light 10h 29m
Length of Day
9h 27m
Waning Gibbous, 94% of the Moon is Illuminated
Jan 18
Waning Gibbous
Jan 24
Last Quarter
Jan 30
New
Feb 6
First Quarter
Feb 14
Full

Hourly Weather History & Observations

Time (EST) Temp. Windchill Dew Point Humidity Pressure Visibility Wind Dir Wind Speed Gust Speed Precip Events Conditions
12:54 AM 28.0 °F 22.8 °F 23.0 °F 81% 29.81 in 10.0 mi ESE 4.6 mph - N/A   Clear
1:54 AM 26.1 °F 19.4 °F 23.0 °F 88% 29.81 in 10.0 mi East 5.8 mph - N/A   Partly Cloudy
2:54 AM 28.0 °F 21.7 °F 25.0 °F 88% 29.81 in 10.0 mi ESE 5.8 mph - N/A   Overcast
3:20 AM 30.2 °F - 24.8 °F 80% 29.82 in 3.0 mi Calm Calm - 0.00 in Snow Light Snow
3:54 AM 30.0 °F 26.5 °F 27.0 °F 88% 29.81 in 2.0 mi NNE 3.5 mph - 0.00 in Snow Light Snow
4:19 AM 30.2 °F 25.4 °F 26.6 °F 86% 29.78 in 3.0 mi NE 4.6 mph - 0.00 in Snow Light Snow
4:54 AM 28.9 °F 23.9 °F 27.0 °F 92% 29.78 in 9.0 mi ENE 4.6 mph - 0.00 in   Overcast
5:33 AM 30.2 °F - 26.6 °F 86% 29.76 in 2.5 mi Calm Calm - 0.00 in Snow Light Snow
5:41 AM 30.2 °F - 26.6 °F 86% 29.76 in 1.8 mi Calm Calm - 0.00 in Snow Light Snow
5:54 AM 28.9 °F - 28.0 °F 96% 29.77 in 1.0 mi Calm Calm - 0.01 in Snow Light Snow
6:14 AM 28.4 °F - 28.4 °F 100% 29.76 in 1.0 mi Calm Calm - 0.01 in Snow Light Snow
6:54 AM 28.9 °F - 28.0 °F 96% 29.77 in 0.8 mi Calm Calm - 0.03 in Snow Light Snow
7:06 AM 28.4 °F 21.2 °F 26.6 °F 93% 29.77 in 0.5 mi WNW 6.9 mph - 0.02 in Fog , Snow Snow
7:17 AM 28.4 °F 22.2 °F 28.4 °F 100% 29.78 in 0.2 mi WNW 5.8 mph - 0.04 in Fog , Snow Heavy Snow
7:54 AM 28.0 °F 16.5 °F 27.0 °F 96% 29.80 in 0.2 mi West 15.0 mph - 0.11 in Fog , Snow Heavy Snow
8:12 AM 26.6 °F 15.2 °F 26.6 °F 100% 29.80 in 0.5 mi WSW 13.8 mph - 0.02 in Fog , Snow Snow
8:30 AM 26.6 °F 14.3 °F 24.8 °F 93% 29.81 in 0.8 mi WSW 16.1 mph - 0.03 in Snow Light Snow
8:49 AM 24.8 °F 12.4 °F 23.0 °F 93% 29.81 in 0.8 mi West 15.0 mph - 0.04 in Snow Light Snow
8:54 AM 25.0 °F 12.6 °F 23.0 °F 92% 29.82 in 0.8 mi West 15.0 mph - 0.04 in Snow Light Snow
9:23 AM 24.8 °F 15.3 °F 23.0 °F 93% 29.82 in 0.8 mi West 9.2 mph - 0.01 in Snow Light Snow
9:41 AM 24.8 °F 12.9 °F 23.0 °F 93% 29.83 in 0.8 mi WSW 13.8 mph - 0.02 in Snow Light Snow
9:54 AM 24.1 °F 13.1 °F 21.9 °F 91% 29.83 in 0.8 mi West 11.5 mph - 0.03 in Snow Light Snow
10:05 AM 24.8 °F 14.0 °F 21.2 °F 86% 29.83 in 1.0 mi West 11.5 mph - 0.00 in Snow Light Snow
10:16 AM 24.8 °F 13.4 °F 21.2 °F 86% 29.84 in 0.8 mi West 12.7 mph - 0.01 in Snow Light Snow
10:54 AM 23.0 °F 10.6 °F 19.9 °F 88% 29.84 in 0.8 mi WSW 13.8 mph - 0.02 in Snow Light Snow
11:49 AM 23.0 °F 10.1 °F 19.4 °F 86% 29.82 in 0.8 mi West 15.0 mph - 0.02 in Snow Light Snow
11:54 AM 23.0 °F 10.1 °F 19.9 °F 88% 29.83 in 0.8 mi West 15.0 mph - 0.02 in Snow Light Snow
12:14 PM 23.0 °F 10.6 °F 19.4 °F 86% 29.81 in 1.0 mi WSW 13.8 mph - 0.00 in Snow Light Snow
12:42 PM 23.0 °F 10.6 °F 19.4 °F 86% 29.80 in 1.0 mi West 13.8 mph - 0.01 in Snow Light Snow
12:54 PM 24.1 °F 11.5 °F 19.9 °F 84% 29.81 in 1.2 mi West 15.0 mph - 0.01 in Snow Light Snow
1:25 PM 24.8 °F 13.4 °F 19.4 °F 80% 29.80 in 2.0 mi WSW 12.7 mph - 0.01 in Snow Light Snow
1:54 PM 24.1 °F 12.0 °F 19.9 °F 84% 29.81 in 2.0 mi West 13.8 mph - 0.01 in Snow Light Snow
2:45 PM 24.8 °F 13.4 °F 19.4 °F 80% 29.80 in 2.0 mi WSW 12.7 mph - 0.00 in Snow Light Snow
2:54 PM 24.1 °F 12.0 °F 19.0 °F 81% 29.81 in 2.0 mi West 13.8 mph - 0.00 in Snow Light Snow
3:01 PM 24.8 °F 13.4 °F 19.4 °F 80% 29.80 in 3.0 mi WSW 12.7 mph - 0.00 in Snow Light Snow
3:54 PM 24.1 °F 11.0 °F 18.0 °F 77% 29.83 in 9.0 mi WSW 16.1 mph - 0.00 in Snow Light Snow
4:41 PM 24.8 °F 11.9 °F 17.6 °F 74% 29.84 in 3.0 mi WSW 16.1 mph - 0.00 in Snow Light Snow
4:54 PM 23.0 °F 10.1 °F 18.0 °F 81% 29.85 in 2.5 mi WSW 15.0 mph - 0.00 in Snow Light Snow
5:07 PM 23.0 °F 10.6 °F 17.6 °F 80% 29.84 in 5.0 mi WSW 13.8 mph - 0.00 in Snow Light Snow
5:54 PM 23.0 °F 9.2 °F 17.1 °F 78% 29.86 in 8.0 mi WSW 17.3 mph - 0.00 in Snow Light Snow
6:54 PM 23.0 °F 12.4 °F 17.1 °F 78% 29.87 in 9.0 mi WSW 10.4 mph - 0.00 in Snow Light Snow
7:54 PM 23.0 °F 11.1 °F 16.0 °F 74% 29.87 in 9.0 mi WSW 12.7 mph - 0.00 in Snow Light Snow
8:54 PM 21.9 °F 8.7 °F 16.0 °F 78% 29.86 in 9.0 mi WSW 15.0 mph - 0.00 in Snow Light Snow
9:39 PM 21.2 °F 7.8 °F 15.8 °F 80% 29.85 in 9.0 mi WSW 15.0 mph - 0.00 in Snow Light Snow
9:54 PM 21.0 °F 8.1 °F 15.1 °F 78% 29.86 in 9.0 mi WSW 13.8 mph - 0.00 in Snow Light Snow
10:54 PM 21.0 °F 8.1 °F 14.0 °F 74% 29.86 in 9.0 mi WSW 13.8 mph - 0.00 in Snow Light Snow
11:54 PM 19.9 °F 6.2 °F 12.9 °F 74% 29.85 in 9.0 mi WSW 15.0 mph - 0.00 in Snow Light Snow